Location: ČR
(50.0000°N, 15.0000°E)
Time: 18:13:32
(UTC+00:00)

Envisat - Pass Details

Date: 04 October 2021
Orbit: 764 x 766 km, 98.2° (Epoch: 22 October)

Event Time Altitude Azimuth Distance (km) Brightness Sun altitude
Rises 03:20:51 0° 22° (NNE) 3,243 6.8 -17.4°
Reaches altitude 10° 03:23:28 10° 34° (NE) 2,311 6.2 -17.0°
Maximum altitude 03:27:51 28° 93° (E) 1,396 5.1 -16.3°
Drops below altitude 10° 03:32:12 10° 153° (SSE) 2,296 5.7 -15.6°
Sets 03:34:47 0° 164° (SSE) 3,217 6.3 -15.2°
